| time (UTC) | temp F | wind direction | speed knots | gust knots | rain 1hr in | rain 24hr in | rain mn in | humidity % | barometer mb |
| 20260508041510 | 47 | 344 | 10.4 | 0.0 | 0.00 | 0.00 | 0.00 | 15 | 1009.7 |
| 20260508040003 | 47 | 319 | 6.1 | 0.0 | 0.00 | 0.00 | 0.00 | 100 | 1009.6 |
| 20260508034654 | 47 | 294 | 7.0 | 0.0 | 0.00 | 0.00 | 0.00 | 5 | 1009.5 |
| 20260508033043 | 47 | 299 | 6.1 | 0.0 | 0.00 | 0.00 | 0.00 | 31 | 1009.4 |
| 20260508031536 | 47 | 303 | 5.2 | 0.0 | 0.00 | 0.00 | 0.00 | 35 | 1009.2 |
| 20260508030027 | 47 | 312 | 4.3 | 0.0 | 0.00 | 0.00 | 0.00 | 40 | 1009.2 |
| 20260508024531 | 48 | 313 | 3.5 | 0.0 | 0.00 | 0.00 | 0.00 | 45 | 1009.2 |
| 20260508023108 | 48 | 308 | 3.5 | 0.0 | 0.00 | 0.00 | 0.00 | 48 | 1009.2 |
| 20260508021559 | 47 | 289 | 0.9 | 0.0 | 0.00 | 0.00 | 0.00 | 50 | 1009.2 |
| 20260508020057 | 47 | 289 | 0.9 | 0.0 | 0.00 | 0.00 | 0.00 | 53 | 1009.3 |
| 20260508014544 | 47 | 289 | 0.9 | 0.0 | 0.00 | 0.00 | 0.00 | 53 | 1009.3 |
| 20260508013032 | 47 | 290 | 0.9 | 0.0 | 0.00 | 0.00 | 0.00 | 54 | 1009.3 |
| 20260508011523 | 47 | 290 | 1.7 | 0.0 | 0.00 | 0.00 | 0.00 | 54 | 1009.3 |
| 20260508010015 | 48 | 304 | 2.6 | 0.0 | 0.00 | 0.00 | 0.00 | 54 | 1009.2 |
| 20260508004504 | 48 | 291 | 1.7 | 0.0 | 0.00 | 0.00 | 0.00 | 55 | 1009.0 |
| 20260508003058 | 48 | 290 | 0.9 | 0.0 | 0.00 | 0.00 | 0.00 | 55 | 1008.8 |
| 20260508000041 | 48 | 290 | 0.9 | 0.0 | 0.00 | 0.00 | 0.00 | 54 | 1008.8 |
| 20260507234630 | 48 | 290 | 2.6 | 0.0 | 0.00 | 0.00 | 0.00 | 54 | 1008.8 |
| 20260507233034 | 48 | 301 | 2.6 | 0.0 | 0.00 | 0.00 | 0.00 | 54 | 1008.8 |
| 20260507231510 | 48 | 307 | 2.6 | 0.0 | 0.00 | 0.00 | 0.00 | 54 | 1008.7 |
| 20260507230107 | 48 | 307 | 1.7 | 0.0 | 0.00 | 0.00 | 0.00 | 54 | 1008.6 |
| 20260507224557 | 49 | 307 | 2.6 | 0.0 | 0.00 | 0.00 | 0.00 | 54 | 1008.6 |
| 20260507223042 | 48 | 310 | 1.7 | 0.0 | 0.00 | 0.00 | 0.00 | 54 | 1008.6 |
| 20260507221635 | 49 | 315 | 1.7 | 0.0 | 0.00 | 0.00 | 0.00 | 53 | 1008.6 |
| 20260507220025 | 49 | 348 | 0.9 | 0.0 | 0.00 | 0.00 | 0.00 | 53 | 1008.8 |
| 20260507214518 | 49 | 348 | 0.9 | 0.0 | 0.00 | 0.00 | 0.00 | 51 | 1008.7 |
| 20260507213007 | 49 | 348 | 1.7 | 0.0 | 0.00 | 0.00 | 0.00 | 53 | 1008.7 |
| 20260507211659 | 49 | 334 | 1.7 | 0.0 | 0.00 | 0.00 | 0.00 | 54 | 1008.7 |
| 20260507210057 | 49 | 321 | 0.9 | 0.0 | 0.00 | 0.00 | 0.00 | 53 | 1008.8 |
| 20260507204640 | 50 | 321 | 1.7 | 0.0 | 0.00 | 0.00 | 0.00 | 50 | 1008.8 |
| 20260507203132 | 49 | 321 | 1.7 | 0.0 | 0.00 | 0.00 | 0.00 | 52 | 1008.9 |
| 20260507201525 | 50 | 319 | 1.7 | 0.0 | 0.00 | 0.00 | 0.00 | 53 | 1009.1 |
| 20260507200013 | 50 | 350 | 1.7 | 0.0 | 0.00 | 0.00 | 0.00 | 53 | 1009.1 |
| 20260507194504 | 50 | 355 | 2.6 | 0.0 | 0.00 | 0.00 | 0.00 | 52 | 1009.2 |
| 20260507193059 | 49 | 9 | 3.5 | 0.0 | 0.00 | 0.00 | 0.00 | 53 | 1009.4 |
| 20260507191547 | 49 | 360 | 2.6 | 0.0 | 0.00 | 0.00 | 0.00 | 53 | 1009.7 |
| 20260507190137 | 48 | 344 | 1.7 | 0.0 | 0.00 | 0.00 | 0.00 | 54 | 1009.9 |
| 20260507184629 | 47 | 19 | 1.7 | 0.0 | 0.00 | 0.00 | 0.00 | 53 | 1010.1 |
| 20260507183020 | 47 | 17 | 2.6 | 0.0 | 0.00 | 0.00 | 0.00 | 53 | 1010.3 |
| 20260507181511 | 47 | 12 | 1.7 | 0.0 | 0.00 | 0.00 | 0.00 | 54 | 1010.3 |
| 20260507180002 | 47 | 12 | 2.6 | 0.0 | 0.00 | 0.00 | 0.00 | 54 | 1010.3 |
| 20260507174556 | 47 | 355 | 4.3 | 0.0 | 0.00 | 0.00 | 0.00 | 54 | 1010.3 |
| 20260507173146 | 48 | 347 | 2.6 | 0.0 | 0.00 | 0.00 | 0.00 | 54 | 1010.2 |
| 20260507171637 | 47 | 9 | 2.6 | 0.0 | 0.00 | 0.00 | 0.00 | 53 | 1010.5 |
| 20260507170028 | 47 | 355 | 4.3 | 0.0 | 0.00 | 0.00 | 0.00 | 54 | 1010.6 |
| 20260507164517 | 47 | 342 | 4.3 | 0.0 | 0.00 | 0.00 | 0.00 | 54 | 1010.6 |
| 20260507163010 | 48 | 349 | 3.5 | 0.0 | 0.00 | 0.00 | 0.00 | 53 | 1010.8 |
| 20260507161603 | 47 | 347 | 3.5 | 0.0 | 0.00 | 0.00 | 0.00 | 54 | 1010.9 |
| 20260507160054 | 47 | 324 | 2.6 | 0.0 | 0.00 | 0.00 | 0.00 | 54 | 1011.1 |
| 20260507154550 | 46 | 300 | 3.5 | 0.0 | 0.00 | 0.00 | 0.00 | 54 | 1011.1 |
| 20260507153034 | 47 | 299 | 2.6 | 0.0 | 0.00 | 0.00 | 0.00 | 54 | 1011.0 |
| 20260507151523 | 47 | 299 | 1.7 | 0.0 | 0.00 | 0.00 | 0.00 | 54 | 1011.0 |
| 20260507150022 | 46 | 298 | 2.6 | 0.0 | 0.00 | 0.00 | 0.00 | 54 | 1011.2 |
| 20260507144518 | 46 | 298 | 2.6 | 0.0 | 0.00 | 0.00 | 0.00 | 54 | 1011.2 |
| 20260507143103 | 46 | 309 | 2.6 | 0.0 | 0.00 | 0.00 | 0.00 | 54 | 1011.3 |
| 20260507141649 | 45 | 309 | 3.5 | 0.0 | 0.00 | 0.00 | 0.00 | 54 | 1011.5 |
| 20260507140043 | 45 | 309 | 3.5 | 0.0 | 0.00 | 0.00 | 0.00 | 54 | 1011.6 |
| 20260507134534 | 45 | 308 | 3.5 | 0.0 | 0.00 | 0.00 | 0.00 | 53 | 1011.7 |
| 20260507133025 | 45 | 338 | 4.3 | 0.0 | 0.00 | 0.00 | 0.00 | 52 | 1011.7 |
| 20260507131513 | 45 | 330 | 5.2 | 0.0 | 0.00 | 0.00 | 0.00 | 50 | 1011.7 |
| 20260507130004 | 45 | 321 | 4.3 | 0.0 | 0.00 | 0.00 | 0.00 | 41 | 1011.7 |
| 20260507124655 | 45 | 316 | 5.2 | 0.0 | 0.00 | 0.00 | 0.00 | 45 | 1011.7 |
| 20260507123046 | 45 | 306 | 5.2 | 0.0 | 0.00 | 0.00 | 0.00 | 50 | 1011.7 |
| 20260507121537 | 45 | 303 | 5.2 | 0.0 | 0.00 | 0.00 | 0.00 | 40 | 1011.7 |
| 20260507120029 | 45 | 304 | 5.2 | 0.0 | 0.00 | 0.00 | 0.00 | 43 | 1011.6 |
| 20260507114520 | 45 | 300 | 4.3 | 0.0 | 0.00 | 0.00 | 0.00 | 44 | 1011.5 |
| 20260507113015 | 45 | 302 | 4.3 | 0.0 | 0.00 | 0.00 | 0.00 | 42 | 1011.4 |
| 20260507111603 | 45 | 302 | 4.3 | 0.0 | 0.00 | 0.00 | 0.00 | 45 | 1011.2 |
| 20260507110055 | 45 | 304 | 4.3 | 0.0 | 0.00 | 0.00 | 0.00 | 43 | 1011.2 |
| 20260507104543 | 45 | 292 | 5.2 | 0.0 | 0.00 | 0.00 | 0.00 | 39 | 1011.2 |
| 20260507103033 | 45 | 307 | 5.2 | 0.0 | 0.00 | 0.00 | 0.00 | 46 | 1011.1 |
| 20260507101625 | 45 | 303 | 5.2 | 0.0 | 0.00 | 0.00 | 0.00 | 45 | 1011.0 |
| 20260507100015 | 44 | 290 | 4.3 | 0.0 | 0.00 | 0.00 | 0.00 | 45 | 1010.6 |
| 20260507094505 | 44 | 300 | 6.1 | 0.0 | 0.00 | 0.00 | 0.00 | 45 | 1010.7 |
| 20260507093157 | 45 | 291 | 7.0 | 0.0 | 0.00 | 0.00 | 0.00 | 43 | 1010.9 |
| 20260507091550 | 45 | 300 | 6.1 | 0.0 | 0.00 | 0.00 | 0.00 | 44 | 1010.8 |
| 20260507090041 | 45 | 319 | 6.1 | 0.0 | 0.00 | 0.00 | 0.00 | 46 | 1010.8 |
| 20260507084531 | 45 | 303 | 5.2 | 0.0 | 0.00 | 0.00 | 0.00 | 44 | 1010.9 |
| 20260507083022 | 45 | 300 | 6.1 | 0.0 | 0.00 | 0.00 | 0.00 | 48 | 1010.9 |
| 20260507081612 | 45 | 302 | 7.0 | 0.0 | 0.00 | 0.00 | 0.00 | 44 | 1011.0 |
| 20260507080003 | 45 | 313 | 7.0 | 0.0 | 0.00 | 0.00 | 0.00 | 40 | 1011.1 |
| 20260507074654 | 45 | 313 | 7.0 | 0.0 | 0.00 | 0.00 | 0.00 | 38 | 1011.1 |
| 20260507073145 | 45 | 309 | 7.8 | 0.0 | 0.00 | 0.00 | 0.00 | 36 | 1011.2 |
| 20260507071636 | 45 | 306 | 7.8 | 0.0 | 0.00 | 0.00 | 0.00 | 33 | 1010.9 |
| 20260507070031 | 44 | 310 | 6.1 | 0.0 | 0.00 | 0.00 | 0.00 | 22 | 1010.9 |
| 20260507064518 | 45 | 300 | 6.1 | 0.0 | 0.00 | 0.00 | 0.00 | 22 | 1010.7 |
| 20260507063009 | 45 | 306 | 7.8 | 0.0 | 0.00 | 0.00 | 0.00 | 21 | 1010.7 |
| 20260507061559 | 45 | 306 | 7.0 | 0.0 | 0.00 | 0.00 | 0.00 | 15 | 1010.9 |
| 20260507060050 | 45 | 318 | 7.8 | 0.0 | 0.00 | 0.00 | 0.00 | 10 | 1011.1 |
| 20260507054541 | 45 | 309 | 7.8 | 0.0 | 0.00 | 0.00 | 0.00 | 100 | 1011.1 |
| 20260507053133 | 45 | 311 | 7.8 | 0.0 | 0.00 | 0.00 | 0.00 | 100 | 1011.2 |
| 20260507051521 | 45 | 309 | 7.0 | 0.0 | 0.00 | 0.00 | 0.00 | 100 | 1011.1 |
| 20260507050011 | 45 | 312 | 7.0 | 0.0 | 0.00 | 0.00 | 0.00 | 100 | 1011.0 |
| 20260507044503 | 45 | 315 | 7.8 | 0.0 | 0.00 | 0.00 | 0.00 | 100 | 1011.1 |
| 20260507043053 | 45 | 317 | 8.7 | 0.0 | 0.00 | 0.00 | 0.00 | 100 | 1011.1 |